Location: Lane
(33.5226°N, 79.8788°W)
Time: 22:59:03
(UTC+00:00)

Courier 1B Rocket - Pass Details

Date: 12 October 2022
Orbit: 920 x 1202 km, 28.2° (Epoch: 09 December)

Event Time Altitude Azimuth Distance (km) Brightness Sun altitude
Rises 23:00:48 0° 267° (W) 4,002 11.4 -3.2°
Reaches altitude 10° 23:03:44 10° 263° (W) 3,004 9.6 -3.8°
Maximum altitude 23:10:53 54° 188° (S) 1,288 5.8 -5.3°
Drops below altitude 10° 23:17:31 10° 113° (ESE) 2,797 6.9 -6.6°
Enters shadow 23:18:53 - 110° (ESE) 3,263 7.2 -6.9°
